[[{"header":{"parameterUnit":"m.s-1","parameterCategory":1,"la1":30.2991,"la2":30.254,"lo1":-89.0895,"lo2":-89.0444,"dy":0.0017,"dx":0.0017,"nx":28,"ny":28,"refTime":"2023-09-20T21:00:00:Z","depth":0,"parameterNumber":2,"parameterNumberName":"U-component_of_WINDS"},"data":[0,0,0,0,0,0,0,0,0,0,0,0,0,0,0,0,0,0,0,0,0,0,0,0,0,0,0,0,0,0,0,0,0,0,0,0,0,0,0,0,0,0,0,0,0,0,0,0,0,0,0,0,0,0,0,0,0,0,-5.5253,-5.5253,0,-5.5273,-5.5273,-5.5274,-5.5101,-5.5096,-5.5092,-5.5087,-5.5111,-5.5116,-5.5121,0,0,0,0,0,0,0,0,0,0,0,0,0,-5.5068,-5.5073,-5.5253,-5.5253,-5.5254,-5.5273,-5.5273,-5.5274,-5.5102,-5.5096,-5.509,-5.5085,-5.5109,-5.5115,-5.5122,0,0,0,0,0,0,0,0,0,0,0,0,0,-5.5125,-5.5074,-5.5253,-5.517,-5.5163,-5.5273,-5.5273,-5.5274,-5.5103,-5.5096,-5.5089,-5.5082,-5.5107,-5.5115,-5.5122,-5.5314,0,0,-5.5146,-5.5149,0,0,0,0,0,0,0,0,-5.5122,-5.5132,-5.5182,-5.5176,-5.5168,-5.5177,-5.5217,-5.5288,-5.5105,-5.5126,-5.5087,-5.5079,-5.5139,-5.5144,-5.5163,-5.5315,-5.5316,-5.5147,-5.5151,-5.5155,-5.5157,0,0,0,0,0,0,0,-5.5118,-5.513,-5.5261,-5.5183,-5.5175,-5.5133,-5.5133,-5.523,-5.5173,-5.5124,-5.5111,-5.5116,-5.5134,-5.5157,-5.5163,-5.5317,-5.5146,-5.5153,-5.5158,-5.5161,-5.5624,-5.5631,0,0,0,0,0,0,-5.5125,-5.5128,-5.526,-5.5262,-5.5127,-5.5142,-5.5142,-5.5182,-5.5171,-5.5163,-5.5122,-5.5108,-5.5147,-5.5154,-5.5163,-5.5383,-5.5154,-5.5162,-5.5166,-5.5616,-5.5626,-5.5634,0,0,0,0,0,0,-5.5122,-5.5139,-5.526,-5.5191,-5.5204,-5.5153,-5.5199,-5.5186,-5.5208,-5.517,-5.5159,-5.5155,-5.5142,-5.5152,-5.5277,-5.5381,-5.5165,-5.5172,-5.5607,-5.5619,-5.563,-5.5827,0,0,0,0,0,0,-5.5117,-5.5138,-5.521,-5.5194,-5.5208,-5.5373,-5.5205,-5.5191,-5.5221,-5.5203,-5.5198,-5.519,-5.5137,-5.5266,-5.5285,-5.5388,-5.5178,-5.5597,-5.5613,-5.5626,-5.5811,-5.5844,-5.5873,0,0,0,0,0,-5.5111,-5.5266,-5.5214,-5.5231,-5.5296,-5.5379,-5.5387,-5.5321,-5.5231,-5.5302,-5.5277,-5.5191,-5.5369,-5.5281,-5.53,-5.5407,-5.559,-5.5608,-5.5625,-5.5797,-5.5838,-5.5872,0,0,0,0,0,0,-5.5297,-5.5263,-5.5205,-5.5359,-5.5373,-5.535,-5.5437,-5.5366,-5.5407,-5.5388,-5.5306,-5.5306,-5.5444,-5.5439,-5.5342,-5.5591,-5.5464,-5.5486,-5.5588,-5.5626,-5.5656,-5.5652,-5.5185,0,0,0,0,0,-5.5356,-5.5425,-5.5392,-5.5531,-5.5541,-5.5489,-5.5523,-5.5471,-5.5482,-5.5488,-5.5472,-5.5488,-5.5546,-5.5587,-5.564,-5.5812,-5.5806,-5.5895,-5.5926,-5.5951,-5.597,-5.6057,-5.6095,-5.5691,-5.5691,-5.569,0,0,-5.5477,-5.5468,-5.5516,-5.5568,-5.5573,-5.5646,-5.5495,-5.558,-5.5633,-5.5501,-5.5615,-5.5606,-5.5618,-5.5766,-5.5831,-5.5766,-5.6081,-5.5973,-5.5994,-5.5998,-5.6079,-5.6117,-5.6151,-5.5702,-5.57,-5.5698,0,0,-5.5736,-5.5737,-5.5851,-5.5859,-5.5867,-5.5832,-5.586,-5.5848,-5.5835,-5.595,-5.5851,-5.5915,-5.6019,-5.603,-5.605,-5.6314,-5.6235,-5.6335,-5.6493,-5.6579,-5.6611,-5.6638,-5.6729,-5.6762,-5.6354,-5.6355,-5.6355,0,-5.5886,-5.5991,-5.5919,-5.601,-5.6034,-5.5918,-5.6032,-5.6044,-5.6071,-5.6091,-5.6019,-5.6145,-5.6146,-5.6293,-5.6357,-5.6379,-5.6407,-5.6332,-5.6612,-5.6639,-5.6664,-5.6749,-5.6783,-5.6366,-5.6365,-5.6364,-5.6363,0,-5.6174,-5.6249,-5.6341,-5.6366,-5.6403,-5.6506,-5.6449,-5.6495,-5.6441,-5.6413,-5.6531,-5.6528,-5.6575,-5.6608,-5.6558,-5.6749,-5.6708,-5.6626,-5.6495,-5.6715,-5.6793,-5.6826,-5.6383,-5.6379,-5.6375,-5.6372,0,0,-5.6545,-5.653,-5.6565,-5.6574,-5.6576,-5.6632,-5.6731,-5.6777,-5.6815,-5.684,-5.6917,-5.7009,-5.6932,-5.6955,-5.6905,-5.6982,-5.7186,-5.6889,-5.6888,-5.694,-5.7393,-5.7451,-5.749,-5.7136,-5.7142,-5.7147,-5.739,0,-5.6793,-5.6956,-5.6894,-5.7062,-5.7129,-5.7021,-5.7106,-5.7117,-5.7095,-5.7149,-5.7125,-5.7189,-5.7086,-5.7098,-5.717,-5.7146,-5.7275,-5.7129,-5.7206,-5.721,-5.72,-5.7531,-5.7592,-5.7822,-5.7421,-5.7426,-5.743,0,-5.7102,-5.7135,-5.7309,-5.7297,-5.7323,-5.7401,-5.7436,-5.7491,-5.7502,-5.748,-5.7506,-5.7439,-5.7535,-5.7409,-5.7538,-5.744,-5.7469,-5.7463,-5.747,-5.747,-5.7329,-5.7535,-5.7894,-5.7926,-5.7479,-5.7475,-5.7471,0,-5.7349,-5.7438,-5.7552,-5.7565,-5.7556,-5.7612,-5.7611,-5.7614,-5.7645,-5.7679,-5.7698,-5.7744,-5.7767,-5.7804,-5.7751,-5.7665,-5.7888,-5.7758,-5.787,-5.7871,-5.7916,-5.7913,-5.828,-5.7946,-5.7946,-5.7945,-5.7944,0,-5.7628,-5.7737,-5.7663,-5.7733,-5.7852,-5.7782,-5.7903,-5.789,-5.7895,-5.796,-5.7873,-5.7937,-5.7866,-5.7924,-5.7885,-5.7995,-5.8009,-5.7993,-5.7979,-5.7997,-5.7998,-5.801,-5.799,-5.7954,-5.7952,-5.795,-5.7949,0,-5.7921,-5.7876,-5.7992,-5.7974,-5.7973,-5.8061,-5.8046,-5.811,-5.8083,-5.8167,-5.8183,-5.8141,-5.8204,-5.8157,-5.8221,-5.8194,-5.8339,-5.8307,-5.8334,-5.8323,-5.8435,-5.8423,-5.8817,-5.8863,-5.8506,-5.851,-5.8513,0,-5.8098,-5.8179,-5.817,-5.8207,-5.8211,-5.8273,-5.8303,-5.8239,-5.8275,-5.8293,-5.8355,-5.8411,-5.8451,-5.8558,-5.8533,-5.8581,-5.8546,-5.8681,-5.8552,-5.8566,-5.8541,-5.8534,-5.854,-5.8705,-5.8709,-5.8713,-5.8716,0,-5.8417,-5.8391,-5.8437,-5.8477,-5.8516,-5.8545,-5.8567,-5.8603,-5.8538,-5.8583,-5.8645,-5.8677,-5.8741,-5.8797,-5.8836,-5.8836,-5.8765,-5.8757,-5.8784,-5.88,-5.881,-5.88,-5.8398,-5.8747,-5.8744,-5.8741,-5.874,-5.8738,-5.8653,-5.8719,-5.8722,-5.8777,-5.8787,-5.8809,-5.8867,-5.8847,-5.8898,-5.8943,-5.8904,-5.8979,-5.8988,-5.9033,-5.9042,-5.91,-5.9044,-5.9085,-5.9094,-5.9104,-5.9117,-5.8807,-5.9108,-5.9107,-5.9106,-5.9105,-5.9104,0,-5.8962,-5.8959,-5.901,-5.9042,-5.9086,-5.9017,-5.9038,-5.9078,-5.9144,-5.9158,-5.92,-5.9272,-5.9326,-5.9306,-5.9354,-5.9404,-5.9372,-5.9418,-5.941,-5.9411,-5.9167,-5.9135,-5.9443,-5.9443,-5.9442,-5.9442,-5.9442,-5.9442,-5.9127,-5.9233,-5.9208,-5.9318,-5.9315,-5.9385,-5.9403,-5.9423,-5.9433,-5.9516,-5.956,-5.9547,-5.9548,-5.9595,-5.9641,-5.9634,-5.9654,-5.971,-5.9691,-5.9462,-5.9429,-5.9396,-5.9366,-5.9717,-5.9717,-5.9929,-5.9931,-5.9933]},{"header":{"parameterUnit":"m.s-1","parameterCategory":1,"la1":30.2991,"la2":30.254,"lo1":-89.0895,"lo2":-89.0444,"dy":0.0017,"dx":0.0017,"nx":28,"ny":28,"refTime":"2023-09-20T21:00:00:Z","depth":0,"parameterNumber":3,"parameterNumberName":"V-component_of_WINDS"},"data":[0,0,0,0,0,0,0,0,0,0,0,0,0,0,0,0,0,0,0,0,0,0,0,0,0,0,0,0,0,0,0,0,0,0,0,0,0,0,0,0,0,0,0,0,0,0,0,0,0,0,0,0,0,0,0,0,0,0,-0.6763,-0.6765,0,-0.6952,-0.6955,-0.6957,-0.7114,-0.7116,-0.7117,-0.7119,-0.7308,-0.7312,-0.7315,0,0,0,0,0,0,0,0,0,0,0,0,0,-0.6533,-0.6536,-0.6762,-0.6765,-0.6767,-0.6952,-0.6955,-0.6957,-0.7114,-0.7116,-0.7118,-0.712,-0.7307,-0.7311,-0.7315,0,0,0,0,0,0,0,0,0,0,0,0,0,-0.6668,-0.6537,-0.6762,-0.6868,-0.6879,-0.6952,-0.6955,-0.6958,-0.7113,-0.7116,-0.7118,-0.7121,-0.7306,-0.7311,-0.7316,-0.7297,0,0,-0.7332,-0.7334,0,0,0,0,0,0,0,0,-0.666,-0.6676,-0.685,-0.686,-0.6873,-0.7012,-0.6943,-0.7071,-0.7113,-0.7024,-0.7119,-0.7122,-0.7207,-0.7221,-0.7251,-0.7306,-0.7314,-0.7332,-0.7335,-0.7338,-0.7339,0,0,0,0,0,0,0,-0.6651,-0.6669,-0.6838,-0.6852,-0.6866,-0.6905,-0.6927,-0.6968,-0.7099,-0.7032,-0.7044,-0.7065,-0.7214,-0.7245,-0.7256,-0.7317,-0.7332,-0.7337,-0.734,-0.7342,-0.7369,-0.7366,0,0,0,0,0,0,-0.6625,-0.666,-0.6831,-0.6843,-0.6771,-0.6907,-0.6931,-0.6965,-0.7099,-0.7122,-0.7062,-0.7071,-0.7235,-0.725,-0.7263,-0.7252,-0.7338,-0.7342,-0.7345,-0.7371,-0.7368,-0.7366,0,0,0,0,0,0,-0.662,-0.6639,-0.6824,-0.6755,-0.6782,-0.6908,-0.6944,-0.6967,-0.6999,-0.7122,-0.7146,-0.707,-0.7238,-0.7256,-0.7289,-0.726,-0.7345,-0.7349,-0.7374,-0.737,-0.7367,-0.7227,0,0,0,0,0,0,-0.6613,-0.6636,-0.6631,-0.6754,-0.6785,-0.6846,-0.6943,-0.6969,-0.7008,-0.7021,-0.7136,-0.7157,-0.7241,-0.728,-0.7294,-0.7269,-0.7354,-0.7377,-0.7372,-0.7368,-0.7234,-0.7219,-0.7205,0,0,0,0,0,-0.6604,-0.6582,-0.663,-0.665,-0.6781,-0.6844,-0.6862,-0.6961,-0.7005,-0.7001,-0.708,-0.7153,-0.7261,-0.7282,-0.7299,-0.7275,-0.7379,-0.7374,-0.7368,-0.7241,-0.7222,-0.7206,0,0,0,0,0,0,-0.6451,-0.66,-0.6655,-0.6673,-0.6745,-0.6871,-0.6868,-0.6937,-0.6996,-0.7006,-0.7125,-0.715,-0.7169,-0.7226,-0.7246,-0.7265,-0.733,-0.7328,-0.7227,-0.721,-0.7196,-0.7182,-0.7358,0,0,0,0,0,-0.6419,-0.6459,-0.6588,-0.6591,-0.6625,-0.674,-0.6771,-0.6841,-0.692,-0.6951,-0.7033,-0.7105,-0.7156,-0.7186,-0.724,-0.7244,-0.7271,-0.7236,-0.7222,-0.7209,-0.7205,-0.7213,-0.7199,-0.7348,-0.7348,-0.7348,0,0,-0.6354,-0.6441,-0.6459,-0.6563,-0.6627,-0.6665,-0.6764,-0.68,-0.6829,-0.6956,-0.6992,-0.7054,-0.7143,-0.7162,-0.7174,-0.7209,-0.7171,-0.7202,-0.7191,-0.7195,-0.7206,-0.7192,-0.7179,-0.7344,-0.7345,-0.7345,0,0,-0.6255,-0.6325,-0.6336,-0.6399,-0.6496,-0.6573,-0.6576,-0.6692,-0.6739,-0.6778,-0.6874,-0.691,-0.6995,-0.7055,-0.7096,-0.7022,-0.7091,-0.7036,-0.6959,-0.6965,-0.6954,-0.6944,-0.6918,-0.6907,-0.7032,-0.7031,-0.7031,0,-0.6162,-0.6224,-0.6333,-0.6364,-0.6407,-0.6526,-0.6538,-0.6593,-0.6701,-0.6728,-0.6767,-0.6877,-0.6945,-0.698,-0.6962,-0.6991,-0.6998,-0.7023,-0.6947,-0.6938,-0.6931,-0.6907,-0.6897,-0.7024,-0.7025,-0.7026,-0.7026,0,-0.6105,-0.6146,-0.6144,-0.6248,-0.6291,-0.6311,-0.6423,-0.6453,-0.652,-0.6592,-0.6631,-0.6717,-0.6791,-0.6804,-0.6869,-0.6849,-0.6868,-0.6925,-0.6992,-0.6907,-0.6887,-0.6879,-0.7013,-0.7016,-0.7018,-0.702,0,0,-0.5912,-0.6078,-0.6075,-0.6125,-0.6241,-0.6275,-0.6302,-0.6376,-0.64,-0.6471,-0.6496,-0.6566,-0.6621,-0.6668,-0.6741,-0.6746,-0.6683,-0.6803,-0.6807,-0.6778,-0.6666,-0.6622,-0.661,-0.673,-0.6729,-0.6728,-0.6659,0,-0.5832,-0.5888,-0.5988,-0.6011,-0.6052,-0.6166,-0.619,-0.6263,-0.6332,-0.6376,-0.6452,-0.65,-0.6568,-0.6598,-0.6608,-0.6688,-0.6662,-0.6694,-0.6754,-0.6754,-0.6727,-0.6599,-0.6552,-0.6483,-0.6651,-0.665,-0.6649,0,-0.5745,-0.5812,-0.584,-0.5956,-0.5976,-0.5996,-0.6073,-0.6113,-0.6199,-0.6249,-0.6303,-0.6383,-0.6417,-0.6479,-0.6528,-0.6547,-0.6578,-0.6621,-0.6621,-0.6629,-0.6696,-0.6604,-0.6463,-0.6452,-0.6638,-0.6639,-0.664,0,-0.5602,-0.5699,-0.5729,-0.5768,-0.5903,-0.5914,-0.5971,-0.606,-0.6099,-0.6166,-0.6192,-0.6261,-0.6298,-0.635,-0.6447,-0.6483,-0.6484,-0.6554,-0.6526,-0.6523,-0.652,-0.6519,-0.6381,-0.654,-0.654,-0.654,-0.654,0,-0.5501,-0.5514,-0.5667,-0.5685,-0.5703,-0.5817,-0.5831,-0.5899,-0.5977,-0.601,-0.6113,-0.6142,-0.6269,-0.6312,-0.6387,-0.6416,-0.6432,-0.6473,-0.6493,-0.6464,-0.6458,-0.6485,-0.6492,-0.6538,-0.6538,-0.6539,-0.6539,0,-0.5344,-0.5447,-0.5487,-0.5613,-0.5646,-0.5653,-0.5761,-0.5783,-0.5859,-0.5899,-0.5916,-0.6034,-0.6091,-0.6193,-0.6278,-0.6329,-0.6342,-0.6376,-0.6313,-0.6325,-0.6291,-0.6293,-0.6166,-0.6155,-0.6319,-0.6317,-0.6316,0,-0.5272,-0.5285,-0.5414,-0.5444,-0.5498,-0.5545,-0.5586,-0.57,-0.5738,-0.5839,-0.5848,-0.5913,-0.5971,-0.6056,-0.6149,-0.6214,-0.6251,-0.6202,-0.6262,-0.6232,-0.6251,-0.6249,-0.6251,-0.6188,-0.6186,-0.6184,-0.6182,0,-0.5134,-0.5186,-0.5242,-0.5316,-0.5362,-0.5426,-0.5494,-0.5513,-0.5642,-0.568,-0.574,-0.5785,-0.5873,-0.5936,-0.6016,-0.6074,-0.6149,-0.6163,-0.616,-0.613,-0.6093,-0.6113,-0.6276,-0.6165,-0.6167,-0.6168,-0.6169,-0.617,-0.5018,-0.5036,-0.5129,-0.5189,-0.5253,-0.5315,-0.5343,-0.5424,-0.5476,-0.5558,-0.5622,-0.5677,-0.5765,-0.588,-0.5934,-0.5978,-0.6013,-0.6009,-0.6008,-0.6005,-0.5993,-0.6086,-0.5993,-0.5994,-0.5994,-0.5995,-0.5995,0,-0.4886,-0.4953,-0.5006,-0.51,-0.5147,-0.5217,-0.5297,-0.5331,-0.5379,-0.5455,-0.5511,-0.5581,-0.5643,-0.5742,-0.5813,-0.5829,-0.5866,-0.5844,-0.5843,-0.5856,-0.5957,-0.5953,-0.5813,-0.5813,-0.5813,-0.5813,-0.5813,-0.5814,-0.4823,-0.4856,-0.4918,-0.4985,-0.5052,-0.5109,-0.5149,-0.5207,-0.5269,-0.5342,-0.5396,-0.5461,-0.5547,-0.5625,-0.5685,-0.5713,-0.5733,-0.57,-0.5738,-0.5831,-0.5848,-0.5864,-0.5861,-0.5704,-0.5704,-0.5634,-0.5633,-0.5632]}]]